Middletown, OH

6:15 PM EST on February 22, 2017 (GMT -0500)
Hook Field Municipal

Weather History for KMWO - February, 2013

Change the Weather History Date:

Saturday, February 23, 2013

  Actual Average (KFFO) Record (KFFO)
Temperature  
Mean Temperature 35 °F -  
Max Temperature 40 °F 41 °F 54 °F (2016)
Min Temperature 30 °F 24 °F -6 °F (2015)
Degree Days  
Heating Degree Days 30    
Moisture  
Dew Point 29 °F    
Average Humidity 81    
Maximum Humidity 100    
Minimum Humidity 59    
Precipitation  
Precipitation 0.00 in - - ()
Sea Level Pressure  
Sea Level Pressure 29.97 in    
Wind  
Wind Speed 4 mph (WNW)    
Max Wind Speed 13 mph    
Max Gust Speed -    
Visibility 9 miles    
Events      
Averages and records for this station are not official NWS values.
T = Trace of Precipitation, MM = Missing Value Source: NWS Daily Summary

Daily Weather History Graph

Daily Weather History Graph

Search for Another Location

Airport or City:

Trip Planner

Search our weather history database for the weather conditions in past years. The results will help you decide how hot, cold, wet, or windy it might be!

Date:

Astronomy

Feb. 23, 2013 Rise Set
Actual Time 7:18 AM EST 6:23 PM EST
Civil Twilight 6:51 AM EST 6:50 PM EST
Nautical Twilight 6:20 AM EST 7:22 PM EST
Astronomical Twilight 5:49 AM EST 7:53 PM EST
Moon 4:33 PM EST (2/23) 5:40 AM EST (2/23)
Length of Visible Light 11h 59m
Length of Day
11h 04m
Waxing Gibbous, 95% of the Moon is Illuminated
Feb 23
Waxing Gibbous
Feb 25
Full
Mar 4
Last Quarter
Mar 11
New
Mar 19
First Quarter

Hourly Weather History & Observations

Time (EST) Temp. Windchill Dew Point Humidity Pressure Visibility Wind Dir Wind Speed Gust Speed Precip Events Conditions
12:15 AM 30.6 °F - 30.6 °F 100% 30.00 in 4.0 mi Calm Calm - N/A   Overcast
12:35 AM 32.5 °F - 32.5 °F 100% 30.00 in 4.0 mi Calm Calm - N/A   Overcast
12:55 AM 32.5 °F - 32.5 °F 100% 30.00 in 5.0 mi Calm Calm - N/A   Overcast
1:15 AM 32.5 °F - 32.5 °F 100% 29.99 in 4.0 mi Calm Calm - N/A   Overcast
1:35 AM 32.5 °F - 32.5 °F 100% 29.99 in 4.0 mi Calm Calm - N/A   Overcast
1:55 AM 32.5 °F - 32.5 °F 100% 29.99 in 4.0 mi Calm Calm - N/A   Overcast
2:15 AM 32.5 °F - 32.5 °F 100% 29.98 in 4.0 mi Calm Calm - N/A   Overcast
2:35 AM 32.5 °F - 32.5 °F 100% 29.98 in 4.0 mi Calm Calm - N/A   Overcast
2:55 AM 32.5 °F - 32.5 °F 100% 29.99 in 5.0 mi Calm Calm - N/A   Overcast
3:15 AM 32.5 °F 29.3 °F 32.5 °F 100% 29.98 in 7.0 mi WSW 3.5 mph - N/A   Overcast
3:35 AM 32.5 °F 26.2 °F 32.5 °F 100% 29.98 in 7.0 mi West 6.9 mph - N/A   Overcast
3:55 AM 34.0 °F 29.8 °F 34.0 °F 100% 29.98 in 10.0 mi West 4.6 mph - N/A   Overcast
4:15 AM 34.3 °F 30.2 °F 33.4 °F 97% 29.98 in 10.0 mi WSW 4.6 mph - N/A   Overcast
4:35 AM 33.8 °F 27.7 °F 32.2 °F 94% 29.97 in 10.0 mi WSW 6.9 mph - N/A   Overcast
4:55 AM 33.8 °F 29.6 °F 32.0 °F 93% 29.98 in 10.0 mi WSW 4.6 mph - N/A   Overcast
5:15 AM 33.8 °F 29.6 °F 32.0 °F 93% 29.98 in 10.0 mi WSW 4.6 mph - N/A   Overcast
5:35 AM 32.5 °F 26.2 °F 31.1 °F 94% 29.98 in 10.0 mi West 6.9 mph - N/A   Overcast
5:55 AM 32.5 °F 24.8 °F 30.4 °F 92% 29.99 in 10.0 mi West 9.2 mph - N/A   Overcast
6:15 AM 32.5 °F 24.8 °F 29.7 °F 89% 29.99 in 10.0 mi West 9.2 mph - N/A   Overcast
6:35 AM 32.5 °F 24.8 °F 29.7 °F 89% 29.99 in 10.0 mi West 9.2 mph - N/A   Overcast
6:55 AM 32.5 °F 25.5 °F 29.1 °F 87% 30.00 in 10.0 mi West 8.1 mph - N/A   Mostly Cloudy
7:15 AM 32.5 °F 26.2 °F 29.3 °F 88% 30.00 in 10.0 mi WSW 6.9 mph - N/A   Overcast
7:35 AM 32.5 °F 26.2 °F 29.7 °F 89% 30.01 in 10.0 mi WSW 6.9 mph - N/A   Mostly Cloudy
7:55 AM 32.5 °F 27.1 °F 29.8 °F 90% 30.01 in 10.0 mi West 5.8 mph - N/A   Mostly Cloudy
8:15 AM 32.5 °F 25.5 °F 29.3 °F 88% 30.01 in 10.0 mi West 8.1 mph - N/A   Overcast
8:35 AM 32.5 °F 24.8 °F 29.1 °F 87% 30.01 in 10.0 mi WSW 9.2 mph - N/A   Mostly Cloudy
8:55 AM 32.5 °F 24.2 °F 28.0 °F 83% 30.01 in 10.0 mi WSW 10.4 mph - N/A   Mostly Cloudy
9:15 AM 32.5 °F 24.8 °F 27.7 °F 82% 30.01 in 10.0 mi WNW 9.2 mph - N/A   Overcast
9:35 AM 32.5 °F 26.2 °F 28.2 °F 84% 30.01 in 10.0 mi West 6.9 mph - N/A   Scattered Clouds
9:55 AM 32.5 °F 26.2 °F 27.5 °F 82% 30.01 in 10.0 mi West 6.9 mph - N/A   Clear
10:15 AM 32.5 °F 26.2 °F 27.1 °F 80% 30.00 in 10.0 mi WNW 6.9 mph - N/A   Clear
10:35 AM 32.5 °F 26.2 °F 27.0 °F 80% 29.99 in 10.0 mi WNW 6.9 mph - N/A   Scattered Clouds
10:55 AM 35.1 °F 30.1 °F 27.7 °F 74% 29.99 in 10.0 mi West 5.8 mph - N/A   Mostly Cloudy
11:15 AM 35.1 °F 29.3 °F 27.7 °F 74% 29.99 in 10.0 mi SSW 6.9 mph - N/A   Scattered Clouds
11:35 AM 34.9 °F 29.9 °F 27.9 °F 76% 29.98 in 10.0 mi West 5.8 mph - N/A   Clear
11:55 AM 35.4 °F 29.0 °F 27.0 °F 71% 29.99 in 10.0 mi NW 8.1 mph - N/A   Scattered Clouds
12:15 PM 36.3 °F 30.1 °F 27.9 °F 71% 29.98 in 10.0 mi West 8.1 mph - N/A   Scattered Clouds
12:35 PM 37.6 °F 33.1 °F 28.4 °F 69% 29.98 in 10.0 mi West 5.8 mph - N/A   Scattered Clouds
12:55 PM 37.6 °F 34.0 °F 27.3 °F 66% 29.98 in 10.0 mi West 4.6 mph - N/A   Clear
1:15 PM 37.6 °F 31.0 °F 27.7 °F 67% 29.98 in 10.0 mi West 9.2 mph - N/A   Clear
1:35 PM 37.8 °F 31.8 °F 26.8 °F 65% 29.96 in 10.0 mi West 8.1 mph - N/A   Clear
1:55 PM 38.8 °F 33.2 °F 27.3 °F 63% 29.96 in 10.0 mi WNW 8.1 mph - N/A   Clear
2:15 PM 39.4 °F 37.2 °F 27.1 °F 62% 29.94 in 10.0 mi West 3.5 mph - N/A   Clear
2:35 PM 40.1 °F 34.7 °F 27.7 °F 61% 29.93 in 10.0 mi WSW 8.1 mph - N/A   Clear
2:55 PM 40.1 °F - 27.5 °F 61% 29.93 in 10.0 mi Calm Calm - N/A   Clear
3:15 PM 40.3 °F 36.3 °F 27.7 °F 61% 29.93 in 10.0 mi WNW 5.8 mph - N/A   Clear
3:35 PM 40.1 °F 38.0 °F 27.0 °F 59% 29.94 in 10.0 mi West 3.5 mph - N/A   Clear
3:55 PM 40.6 °F 35.4 °F 27.9 °F 60% 29.94 in 10.0 mi West 8.1 mph - N/A   Clear
4:15 PM 40.8 °F 33.7 °F 27.7 °F 60% 29.94 in 10.0 mi West 12.7 mph - N/A   Clear
4:35 PM 40.1 °F 34.7 °F 27.3 °F 60% 29.94 in 10.0 mi WNW 8.1 mph - N/A   Clear
4:55 PM 40.1 °F 36.1 °F 26.8 °F 59% 29.93 in 10.0 mi West 5.8 mph - N/A   Clear
5:15 PM 40.1 °F 38.0 °F 27.7 °F 61% 29.93 in 10.0 mi West 3.5 mph - N/A   Clear
5:35 PM 39.0 °F 35.7 °F 27.5 °F 63% 29.93 in 10.0 mi WNW 4.6 mph - N/A   Clear
5:55 PM 38.3 °F 34.8 °F 27.5 °F 65% 29.94 in 10.0 mi WNW 4.6 mph - N/A   Clear
6:15 PM 36.7 °F 32.9 °F 28.4 °F 72% 29.94 in 10.0 mi WNW 4.6 mph - N/A   Clear
6:35 PM 35.1 °F 31.0 °F 27.9 °F 75% 29.94 in 10.0 mi WNW 4.6 mph - N/A   Clear
6:55 PM 35.1 °F 30.1 °F 28.8 °F 78% 29.94 in 10.0 mi NW 5.8 mph - N/A   Clear
7:15 PM 33.3 °F 30.2 °F 28.0 °F 81% 29.94 in 10.0 mi NW 3.5 mph - N/A   Clear
7:35 PM 34.0 °F 28.0 °F 28.6 °F 81% 29.95 in 10.0 mi NW 6.9 mph - N/A   Clear
7:55 PM 32.5 °F 26.2 °F 27.5 °F 82% 29.95 in 10.0 mi NW 6.9 mph - N/A   Clear
8:15 PM 32.5 °F 27.1 °F 27.7 °F 82% 29.95 in 10.0 mi NW 5.8 mph - N/A   Clear
8:35 PM 32.5 °F 26.2 °F 27.5 °F 82% 29.95 in 10.0 mi NNW 6.9 mph - N/A   Clear
8:55 PM 32.5 °F 26.2 °F 27.5 °F 82% 29.95 in 10.0 mi NNW 6.9 mph - N/A   Clear
9:15 PM 32.5 °F 26.2 °F 27.7 °F 82% 29.94 in 10.0 mi NNW 6.9 mph - N/A   Clear
9:35 PM 32.5 °F 25.5 °F 27.5 °F 82% 29.95 in 10.0 mi NW 8.1 mph - N/A   Clear
9:55 PM 32.5 °F 25.5 °F 27.1 °F 80% 29.94 in 10.0 mi NW 8.1 mph - N/A   Clear
10:15 PM 32.5 °F 28.1 °F 27.5 °F 82% 29.94 in 10.0 mi NW 4.6 mph - N/A   Clear
10:35 PM 32.5 °F 29.3 °F 27.5 °F 82% 29.94 in 10.0 mi NW 3.5 mph - N/A   Clear
10:55 PM 32.5 °F 28.1 °F 28.0 °F 83% 29.95 in 10.0 mi NW 4.6 mph - N/A   Clear
11:15 PM 32.5 °F 27.1 °F 28.6 °F 85% 29.96 in 10.0 mi North 5.8 mph - N/A   Scattered Clouds
11:35 PM 32.5 °F 29.3 °F 29.1 °F 87% 29.96 in 10.0 mi NNW 3.5 mph - N/A   Mostly Cloudy
11:55 PM 32.5 °F - 29.3 °F 88% 29.95 in 10.0 mi Calm Calm - N/A   Mostly Cloudy